Temp
62 62 62 62 62 62 62 62 62 62 62 62 62 62 62 62 61 67 71 82 78 79 81 79 78 78 80 76 80 80 63 60 68 69 69 75 71 79 81 75 79 78 73 75 77
61 61 61 61 61 61 61 61 61 61 61 61 62 62 62 62 60 64 79 81 79 79 82 79 75 77 70 73 74 69 60 68 76 76 73 76 75 76 73 73 72 73 77 78 77
61 61 61 61 61 61 61 61 61 61 61 61 61 62 62 61 64 74 81 79 79 79 86 84 84 80 71 73 74 72 67 75 79 80 81 75 74 78 72 68 71 69 72 75 75
60 61 61 61 61 61 61 61 61 61 61 61 61 61 62 58 62 82 80 79 79 81 82 83 80 73 69 70 78 71 78 81 81 82 79 74 77 73 74 73 78 77 76 75 73
60 60 60 60 60 60 61 61 60 60 61 61 61 61 57 57 67 84 82 80 79 80 80 80 75 73 68 73 77 73 78 81 85 82 80 80 75 74 75 77 79 78 77 75 75
59 59 59 59 60 60 60 60 60 60 60 61 61 61 55 57 82 84 81 79 80 79 78 79 78 78 73 74 72 79 81 80 81 81 82 75 74 74 74 78 77 76 75 76 76
59 59 59 59 59 59 59 59 60 60 60 61 61 61 57 67 82 80 78 75 79 77 76 80 82 75 73 73 80 78 72 78 76 77 76 78 69 69 75 76 74 75 75 76 77
58 58 58 59 59 59 59 59 59 60 61 62 62 58 54 76 77 79 82 76 81 78 79 82 82 76 74 79 77 73 69 64 75 77 77 74 62 71 75 73 72 74 76 77 77
58 58 58 58 58 58 58 58 60 62 63 63 56 54 59 78 71 76 78 78 79 78 78 90 79 72 72 67 62 64 60 63 70 79 78 71 62 71 75 73 71 73 75 76 77
57 57 57 57 57 57 57 58 60 60 64 66 68 56 67 73 78 80 75 83 79 77 76 76 70 64 62 61 55 59 59 62 67 76 74 68 65 71 73 73 72 73 74 76 76
57 57 57 57 57 57 54 54 59 57 58 60 60 63 72 79 83 78 79 79 79 73 64 68 62 57 64 67 68 69 65 65 72 77 72 67 67 70 72 72 72 72 73 75 76
57 57 57 57 56 56 51 55 59 57 48 66 66 68 75 76 71 76 82 73 71 64 66 61 58 68 72 72 70 67 63 64 71 77 72 66 66 71 72 72 73 73 73 75 77
57 57 56 56 55 52 49 55 61 53 48 61 68 67 70 72 68 70 76 73 68 64 63 60 64 74 73 70 68 62 62 65 66 73 70 70 63 67 73 75 76 77 77 77 76
56 56 56 55 52 45 52 58 59 59 45 55 59 67 70 71 64 81 80 76 68 67 65 63 74 72 69 69 68 55 72 74 70 65 58 70 54 61 70 71 74 76 77 78 78
56 56 55 55 44 43 58 57 60 56 37 67 64 75 69 71 72 72 83 73 68 67 65 62 66 68 66 70 72 67 75 72 70 63 59 62 57 62 69 67 71 75 78 80 79
56 56 55 49 43 48 53 52 53 46 38 62 68 63 62 66 71 74 74 76 76 70 66 68 72 72 72 74 75 76 70 66 61 57 50 63 62 61 61 70 74 77 79 81 82
55 54 53 54 44 50 51 51 41 36 60 58 57 58 58 60 66 70 70 67 62 54 59 61 68 70 76 68 69 69 59 49 47 49 50 59 58 67 71 77 79 79 80 82 83
54 54 50 55 47 49 47 44 32 50 51 60 58 57 55 63 65 66 66 63 63 61 54 52 52 67 73 69 63 63 60 49 45 45 54 59 54 69 81 80 82 84 83 84 83
53 45 43 49 56 49 43 33 38 45 56 54 55 51 51 57 59 63 61 66 70 64 56 52 55 69 74 73 74 62 57 64 55 47 50 54 62 71 75 78 78 82 83 82 83
45 38 41 53 55 46 38 36 40 54 57 54 45 50 46 51 54 55 59 65 70 69 67 59 52 64 72 73 71 68 68 57 49 45 43 52 55 59 69 73 74 78 80 82 84
38 35 47 56 51 42 32 34 46 55 57 51 47 47 49 50 52 51 55 66 71 71 68 59 55 57 68 62 62 61 57 54 55 51 48 46 54 65 72 74 74 78 82 83 84
35 32 50 52 39 34 33 40 49 53 55 53 53 51 50 52 49 50 53 63 68 70 67 63 55 53 58 66 71 67 63 60 52 49 48 52 61 76 73 76 74 79 83 85 87
36 32 47 46 32 34 37 41 47 47 49 49 50 55 55 49 46 53 58 65 65 61 65 63 52 46 50 59 59 62 61 57 54 51 50 51 59 74 72 75 75 77 78 81 85
36 29 37 39 43 39 36 37 41 52 50 51 50 53 51 49 50 50 52 62 63 61 65 61 51 63 55 54 61 59 63 61 60 49 51 54 61 69 71 73 74 79 78 78 81
34 32 35 29 35 36 38 39 38 39 47 48 46 48 46 40 44 45 50 52 60 60 57 54 59 58 65 66 65 65 66 63 59 59 59 64 59 66 71 75 78 75 75 77 78
35 37 36 33 33 36 37 35 36 41 41 43 43 48 47 42 43 43 46 43 46 53 50 50 52 56 60 67 65 66 68 66 64 61 60 63 64 70 74 72 75 78 75 75 79
45 45 39 35 31 33 36 36 36 40 48 49 47 44 44 49 50 50 50 51 50 45 46 46 45 49 57 59 60 55 67 65 65 64 66 59 73 69 71 75 75 79 76 76 75
MSLP
1018.96 1018.51 1018.02 1017.53 1017.01 1016.46 1015.97 1015.49 1015.06 1014.59 1014.05 1013.45 1012.90 1012.34 1011.91 1011.31 1010.01 1008.95 1007.84 1005.65 1005.60 1005.92 1006.43 1007.27 1007.85 1007.86 1007.91 1007.99 1007.70 1007.48 1007.92 1007.66 1006.83 1006.73 1007.03 1007.59 1007.94 1008.79 1008.81 1009.43 1009.79 1010.28 1010.87 1011.90 1013.06
1019.01 1018.51 1018.03 1017.54 1017.03 1016.47 1015.95 1015.42 1014.91 1014.46 1013.97 1013.45 1012.94 1012.45 1011.90 1011.51 1010.63 1008.35 1004.78 1004.80 1005.10 1005.55 1006.29 1006.81 1007.51 1007.69 1008.06 1007.65 1007.33 1007.46 1007.37 1006.30 1005.59 1005.62 1006.37 1007.07 1007.62 1008.22 1009.02 1009.58 1010.12 1010.53 1011.19 1012.38 1013.22
1019.31 1018.75 1018.15 1017.50 1016.92 1016.37 1015.78 1015.23 1014.73 1014.30 1013.84 1013.33 1012.87 1012.44 1012.02 1011.63 1010.43 1006.06 1004.19 1004.13 1004.68 1005.29 1005.53 1006.03 1006.39 1006.89 1007.16 1006.77 1006.63 1006.29 1005.89 1004.88 1005.02 1004.80 1005.31 1006.72 1007.82 1008.03 1008.88 1009.58 1009.53 1010.06 1011.07 1012.25 1013.16
1019.23 1018.70 1018.16 1017.53 1016.86 1016.18 1015.55 1014.95 1014.43 1013.96 1013.57 1013.13 1012.77 1012.38 1012.01 1011.71 1008.94 1004.41 1004.09 1003.96 1004.47 1005.23 1005.49 1005.78 1006.11 1006.52 1006.49 1006.19 1005.44 1005.15 1004.08 1004.05 1004.65 1004.69 1005.64 1006.46 1007.28 1008.06 1008.51 1008.37 1008.67 1009.33 1010.15 1011.49 1012.67
1019.20 1018.60 1017.97 1017.35 1016.69 1015.95 1015.15 1014.45 1013.92 1013.43 1013.11 1012.80 1012.53 1012.32 1011.85 1010.91 1006.91 1003.85 1003.97 1004.24 1004.96 1005.49 1005.32 1005.58 1005.89 1005.93 1005.87 1005.47 1004.92 1004.37 1003.29 1002.71 1003.37 1004.35 1005.25 1006.29 1006.94 1007.79 1008.50 1008.58 1009.28 1010.20 1010.82 1011.49 1012.21
1019.16 1018.49 1017.77 1017.01 1016.21 1015.44 1014.63 1013.92 1013.08 1012.63 1012.44 1012.31 1012.20 1012.27 1011.86 1009.44 1004.58 1003.89 1003.90 1004.28 1004.51 1004.98 1005.10 1005.28 1005.48 1005.29 1005.39 1005.19 1004.77 1003.75 1003.05 1003.21 1003.56 1004.49 1005.13 1005.97 1007.25 1007.63 1008.94 1009.15 1009.95 1010.39 1011.17 1011.47 1011.83
1019.05 1018.33 1017.58 1016.77 1015.82 1014.90 1013.89 1013.00 1012.32 1011.71 1011.42 1011.50 1011.70 1011.89 1010.86 1006.10 1003.90 1003.62 1003.92 1004.25 1004.35 1004.61 1004.83 1004.60 1004.79 1005.28 1005.31 1004.87 1004.40 1003.75 1003.77 1003.99 1004.46 1004.61 1005.26 1006.11 1007.88 1008.31 1008.89 1009.50 1009.98 1010.72 1011.28 1011.59 1011.73
1018.90 1018.10 1017.25 1016.41 1015.49 1014.43 1013.20 1011.91 1011.16 1010.50 1009.96 1010.33 1011.01 1011.31 1008.99 1004.67 1004.02 1004.08 1003.83 1004.11 1004.09 1004.52 1004.56 1004.43 1004.75 1005.20 1005.27 1004.61 1004.12 1004.14 1004.37 1004.69 1004.67 1004.68 1005.43 1005.74 1007.48 1008.41 1009.05 1009.38 1010.28 1010.73 1011.12 1011.42 1011.56
1018.67 1017.90 1017.07 1016.11 1014.99 1013.85 1012.52 1011.01 1010.15 1009.65 1009.34 1009.73 1010.68 1010.50 1006.85 1003.98 1004.09 1002.86 1003.30 1003.46 1003.58 1004.06 1004.31 1004.47 1004.70 1005.09 1005.44 1005.54 1005.49 1005.23 1005.11 1005.00 1004.85 1004.57 1004.76 1005.96 1007.47 1008.41 1009.12 1009.55 1010.13 1010.55 1010.80 1010.98 1011.27
1018.56 1017.62 1016.69 1015.81 1014.76 1013.41 1011.86 1010.15 1009.75 1009.91 1009.81 1009.85 1009.51 1009.63 1005.27 1003.26 1002.44 1002.08 1002.23 1002.67 1003.31 1003.91 1004.42 1004.63 1004.89 1005.16 1005.71 1005.98 1006.06 1005.54 1005.25 1004.83 1004.45 1004.69 1005.21 1006.06 1006.93 1008.06 1008.77 1009.43 1009.70 1010.12 1010.41 1010.58 1010.70
1018.59 1017.58 1016.55 1015.47 1014.39 1013.25 1011.91 1010.53 1010.42 1009.99 1009.44 1008.41 1007.59 1006.22 1004.08 1002.85 1001.86 1001.78 1001.85 1002.53 1003.06 1003.87 1004.56 1004.54 1004.97 1004.88 1004.90 1005.02 1004.96 1004.76 1004.76 1004.62 1004.04 1003.91 1004.75 1005.62 1006.62 1007.29 1008.22 1009.11 1009.51 1009.84 1009.96 1010.03 1010.03
1018.51 1017.59 1016.49 1015.46 1014.11 1013.19 1012.71 1012.50 1012.45 1012.67 1010.39 1007.10 1005.72 1005.02 1003.52 1003.53 1003.29 1001.66 1001.42 1002.34 1003.08 1003.74 1004.21 1004.79 1004.34 1004.31 1004.52 1004.65 1004.74 1004.66 1004.62 1004.30 1004.24 1004.05 1004.76 1005.91 1006.67 1007.24 1007.65 1007.44 1007.89 1008.60 1009.11 1009.26 1009.43
1018.43 1017.55 1016.50 1015.40 1013.88 1013.37 1013.71 1012.49 1012.07 1012.27 1010.98 1005.46 1003.48 1002.62 1001.87 1002.85 1002.74 1001.43 1001.38 1001.52 1002.43 1003.42 1003.88 1004.32 1003.78 1003.96 1004.31 1004.36 1004.43 1004.28 1004.33 1004.10 1004.36 1004.66 1005.45 1006.03 1007.07 1007.37 1007.57 1008.07 1008.19 1007.93 1007.75 1008.32 1008.52
1018.27 1017.53 1016.72 1015.65 1014.14 1014.69 1013.01 1011.90 1011.69 1011.50 1009.83 1004.67 1002.52 1000.49 1000.57 1001.11 1001.21 1000.17 1000.45 1000.84 1001.73 1002.53 1003.66 1004.01 1003.11 1003.27 1003.73 1003.88 1003.89 1004.09 1003.40 1003.97 1004.53 1005.31 1005.75 1005.74 1006.71 1006.68 1006.69 1006.85 1006.97 1006.89 1006.78 1007.00 1007.39
1018.06 1017.39 1016.71 1016.62 1016.37 1015.35 1012.57 1011.81 1011.27 1010.89 1008.44 1001.99 1000.77 999.48 999.64 999.73 998.93 998.89 999.39 1000.21 1001.09 1001.79 1002.96 1002.80 1002.51 1002.81 1003.01 1002.82 1003.32 1003.32 1003.45 1004.04 1004.94 1005.66 1006.04 1006.05 1006.53 1005.23 1005.44 1005.70 1005.05 1004.83 1005.25 1005.65 1005.99
1017.63 1017.03 1016.28 1016.09 1016.30 1013.87 1013.09 1012.37 1011.59 1011.13 1006.67 1001.46 1000.16 999.99 1000.25 999.86 998.78 998.59 999.24 999.99 1000.43 1001.53 1002.16 1002.36 1001.91 1002.11 1001.83 1002.25 1002.72 1003.17 1003.87 1004.82 1005.85 1006.69 1007.04 1005.99 1006.04 1004.64 1004.25 1002.85 1002.68 1003.29 1003.91 1004.28 1004.82
1017.25 1016.30 1015.53 1015.55 1014.95 1013.68 1013.38 1012.79 1012.24 1009.75 1004.83 1002.75 1001.72 1001.33 1000.73 1000.13 999.33 998.36 998.90 999.89 1000.32 1001.57 1001.85 1002.24 1001.87 1001.48 1001.35 1002.33 1002.73 1003.63 1004.85 1006.19 1007.09 1007.35 1006.77 1005.59 1005.52 1002.98 1001.46 1001.13 1000.81 1001.27 1001.75 1002.60 1003.31
1016.85 1015.65 1015.03 1014.55 1013.90 1014.01 1014.13 1013.59 1011.85 1008.15 1006.01 1004.33 1003.35 1002.01 1001.26 1000.09 999.51 998.72 998.87 999.67 1000.20 1000.85 1001.87 1002.44 1002.05 1001.14 1000.92 1001.27 1002.21 1003.61 1004.66 1005.95 1006.99 1007.35 1006.68 1005.65 1004.52 1001.43 999.97 999.85 999.99 1000.09 1000.13 1001.39 1002.39
1016.82 1015.69 1015.21 1013.93 1013.55 1014.12 1014.51 1013.61 1011.05 1008.89 1007.63 1006.22 1004.49 1003.37 1002.31 1001.15 1000.20 999.25 999.02 998.81 999.19 999.86 1000.79 1001.86 1001.64 1000.39 1000.16 1000.47 1001.37 1002.91 1004.02 1004.71 1006.27 1007.26 1006.99 1005.54 1003.66 1001.14 999.78 999.57 999.42 999.14 1000.03 1000.53 1001.03
1017.86 1016.96 1015.51 1013.59 1013.30 1014.01 1014.73 1013.27 1011.29 1009.18 1008.08 1007.14 1006.43 1005.51 1004.46 1003.11 1001.54 1000.35 999.48 998.61 998.81 999.27 999.51 1000.79 1001.51 1000.48 1000.05 1000.22 1000.77 1001.33 1002.86 1004.90 1006.17 1006.88 1007.10 1005.44 1003.69 1001.63 1000.27 999.59 998.70 998.75 998.91 999.32 999.91
1018.63 1017.80 1014.39 1013.63 1013.43 1014.43 1014.78 1013.84 1011.54 1009.67 1008.87 1008.23 1007.39 1006.85 1005.50 1004.43 1003.03 1001.53 999.94 998.80 998.48 998.99 999.46 1000.55 1000.80 1000.68 1000.27 1000.03 1000.32 1001.57 1002.49 1003.93 1004.77 1005.69 1006.05 1005.28 1002.89 1000.36 999.52 998.85 998.25 997.57 997.88 998.28 999.09
1020.02 1019.14 1014.71 1014.15 1014.53 1015.36 1015.00 1013.99 1011.98 1010.22 1009.26 1008.61 1007.73 1007.31 1006.35 1005.34 1004.11 1002.66 1000.89 999.63 999.23 998.54 999.36 999.63 1000.51 1001.08 1000.35 999.73 999.61 1000.30 1001.51 1002.72 1004.31 1005.62 1005.34 1004.16 1001.11 999.21 998.69 997.92 997.45 997.22 997.51 997.51 998.15
1020.57 1019.41 1015.97 1015.32 1016.65 1016.69 1015.72 1014.13 1012.56 1011.28 1009.96 1009.01 1008.22 1007.31 1006.69 1006.28 1005.55 1003.50 1001.75 1000.56 999.98 999.53 999.17 999.52 1000.14 1000.96 1000.77 1000.15 999.75 1000.02 1000.86 1001.85 1002.87 1003.59 1004.18 1003.53 1000.66 999.03 998.32 997.66 997.52 997.27 997.75 997.97 998.02
1020.94 1020.33 1018.44 1017.84 1017.64 1017.38 1016.57 1015.02 1013.25 1011.91 1010.56 1009.84 1008.77 1007.29 1006.89 1006.15 1005.66 1004.35 1003.33 1001.77 1001.27 1000.77 1000.17 999.78 999.85 999.72 999.29 999.08 999.08 999.59 1000.07 1000.92 1001.76 1003.24 1003.19 1001.93 1000.53 999.33 998.58 998.14 997.93 997.73 997.87 997.69 997.82
1021.04 1020.69 1020.09 1019.23 1018.43 1018.01 1017.16 1015.85 1014.47 1012.96 1011.30 1010.28 1008.97 1008.50 1007.79 1006.67 1005.96 1005.73 1005.06 1004.06 1002.39 1001.85 1001.21 1000.69 1000.15 999.59 999.10 998.75 998.48 998.54 999.01 999.78 1000.71 1001.10 1001.29 1000.80 1000.43 999.43 998.55 997.80 997.15 997.17 997.58 997.64 997.84
1021.04 1020.80 1020.45 1019.64 1018.83 1018.13 1017.21 1016.30 1015.51 1014.13 1012.70 1011.13 1010.39 1008.94 1007.97 1007.71 1007.66 1007.20 1006.18 1005.37 1004.49 1003.27 1002.79 1001.92 1001.06 1000.02 999.35 998.67 998.38 998.21 998.13 998.67 999.29 999.64 999.69 999.43 998.80 998.00 997.45 997.33 997.47 997.01 997.37 997.36 996.99
1020.53 1020.54 1020.65 1019.48 1019.03 1018.45 1017.50 1016.69 1015.79 1015.01 1012.59 1011.43 1010.63 1009.65 1008.47 1007.69 1007.60 1007.10 1006.68 1005.88 1005.15 1004.93 1004.20 1003.42 1002.25 1001.07 999.83 998.93 998.91 998.42 996.85 997.73 998.25 998.55 998.68 998.63 997.83 997.41 997.45 997.30 996.79 996.36 996.93 996.60 996.73
Wind_Speed
21 22 22 22 22 22 22 21 20 20 20 21 22 21 20 20 21 2 8 12 9 15 8 11 2 2 1 2 4 2 2 3 3 7 7 9 6 9 5 11 3 3 5 16 17
23 23 23 23 23 22 22 21 21 20 20 20 20 20 19 19 5 8 14 7 7 19 8 10 7 8 3 5 4 5 3 6 6 7 13 13 14 12 8 10 4 9 18 17 17
21 22 23 24 24 23 22 21 21 20 19 19 19 18 17 13 6 10 2 7 17 19 7 7 5 7 5 5 5 6 7 7 6 8 16 16 11 3 16 4 6 23 23 21 16
23 23 23 24 24 25 24 24 22 21 19 19 17 16 17 2 7 1 7 7 14 8 1 5 4 5 4 4 4 5 9 8 11 10 12 16 10 7 7 5 14 25 25 23 18
24 24 25 25 25 25 26 25 23 22 20 17 15 12 4 2 14 5 0 12 8 8 8 7 5 4 3 3 4 4 8 6 20 16 17 14 9 6 6 9 16 18 20 20 17
24 25 26 26 26 26 26 25 25 22 21 17 12 6 2 8 7 8 7 6 6 7 6 6 7 8 3 4 2 5 6 4 11 14 17 13 7 5 6 14 19 20 18 17 18
24 25 25 26 28 28 29 28 26 25 23 16 9 5 4 19 4 2 6 5 6 5 4 6 6 2 0 4 4 3 4 4 3 4 5 18 2 4 14 17 21 18 15 15 15
25 25 26 27 28 30 31 32 29 26 20 11 10 5 11 8 9 15 13 6 5 5 4 5 6 5 5 5 9 6 5 5 4 5 9 5 5 10 16 20 18 18 16 15 16
25 25 26 28 30 31 33 34 27 8 5 16 9 5 12 3 4 11 7 8 8 4 4 4 5 6 4 5 6 6 5 3 4 7 10 2 3 17 16 16 18 17 17 16 16
25 26 28 28 30 33 35 28 8 2 5 5 2 2 5 5 5 5 6 10 4 4 3 5 3 4 4 5 6 5 4 4 7 9 5 4 5 18 19 17 19 18 17 17 17
24 27 28 30 31 32 18 6 7 4 3 7 6 6 7 5 4 1 4 8 5 5 7 5 5 8 12 9 6 6 3 4 5 8 6 7 8 21 21 16 17 16 17 17 18
25 26 29 30 33 29 3 5 7 4 15 14 21 22 27 5 7 3 9 8 7 7 5 1 9 9 7 9 4 2 2 3 3 4 4 5 3 15 22 25 21 21 18 19 19
26 27 28 29 34 5 4 5 3 2 6 9 10 9 9 15 11 9 8 5 7 8 7 8 6 9 7 5 7 4 5 4 5 4 4 7 3 9 16 12 17 18 19 18 20
27 26 27 31 6 7 7 6 8 3 4 10 6 10 8 11 9 14 10 8 3 15 8 7 11 8 8 7 6 5 8 3 2 4 5 7 6 8 15 19 16 18 19 19 21
26 27 25 16 5 5 8 14 14 3 6 4 5 1 6 16 7 13 11 4 10 7 9 9 9 11 6 11 8 10 5 8 5 5 1 2 1 8 14 16 22 22 21 20 18
29 26 28 2 1 10 11 13 3 4 12 6 5 4 6 7 4 6 9 4 6 6 3 10 4 10 11 4 10 4 3 8 5 5 2 12 9 7 9 26 24 19 21 21 20
32 30 18 1 5 3 7 5 4 6 7 4 5 6 5 5 6 7 16 14 11 8 13 2 11 3 5 6 3 6 8 2 3 1 7 5 2 12 9 13 23 24 25 23 21
33 27 7 5 4 3 4 5 5 5 8 7 8 9 8 7 7 2 14 13 5 7 6 8 6 11 6 9 9 8 11 8 6 4 5 6 8 18 18 10 12 17 22 20 19
28 5 5 6 2 3 5 3 8 3 6 11 11 6 7 6 3 3 8 20 21 10 9 9 8 2 7 6 14 6 6 9 6 2 3 5 8 10 8 12 10 19 14 19 20
8 5 6 5 4 4 5 5 5 2 8 6 5 6 5 8 6 2 8 7 15 10 7 7 4 5 4 5 5 10 9 5 2 8 5 5 5 8 9 9 9 11 17 18 19
4 6 6 12 4 5 3 7 7 2 10 7 4 5 5 4 5 5 4 4 10 16 9 7 5 3 7 8 11 4 4 4 7 6 8 3 10 9 9 10 11 15 17 17 18
3 5 6 8 5 2 1 8 9 13 5 7 6 8 7 6 5 4 4 4 8 5 17 9 8 7 7 4 8 9 11 9 7 5 1 6 13 6 9 10 9 11 15 18 18
4 4 6 4 5 5 8 6 5 9 5 5 5 9 10 6 5 6 5 2 13 10 10 10 4 3 5 7 2 6 6 6 5 5 9 8 10 4 6 5 4 8 8 9 15
3 5 6 5 0 4 7 5 8 10 5 8 6 8 7 8 8 8 8 6 11 7 10 2 7 21 12 5 6 6 6 7 9 5 6 9 6 5 6 5 5 8 9 10 11
1 3 2 5 4 5 5 5 9 8 5 7 8 11 8 4 1 3 4 7 5 10 8 3 14 9 15 8 6 7 6 10 9 9 10 11 10 10 10 10 10 4 9 11 11
1 3 4 5 5 5 2 1 8 8 5 5 9 18 5 4 5 6 4 2 4 8 7 7 3 7 12 15 8 7 8 9 8 4 5 6 10 10 12 6 7 10 8 12 14
1 1 2 5 5 2 2 5 6 16 9 7 7 5 6 6 7 12 10 8 7 2 3 5 3 5 20 5 6 7 18 8 5 5 9 8 15 8 7 10 9 7 9 10 9
Wind_Direction
357 354 350 348 345 342 340 337 336 333 331 329 329 328 328 328 318 298 263 218 177 170 125 126 80 204 145 249 222 215 15 259 261 152 139 143 130 158 75 137 145 123 126 145 153
353 350 347 344 342 339 336 333 330 329 327 326 325 325 325 331 310 270 248 204 165 161 137 152 167 172 187 211 204 159 183 242 228 150 152 164 153 151 130 164 72 97 113 140 149
351 347 344 340 338 335 331 328 325 323 320 320 320 321 323 326 315 249 18 239 170 172 158 170 141 174 210 172 207 196 212 213 165 161 153 150 144 122 144 197 190 150 146 153 160
348 345 342 339 335 331 327 323 319 315 313 314 315 316 318 285 269 218 77 66 154 172 192 168 172 180 211 230 238 268 235 200 179 160 145 159 139 135 179 223 171 158 154 155 165
346 342 339 336 332 327 323 318 312 306 306 308 308 314 334 231 246 268 179 109 126 158 198 176 163 161 206 234 300 228 266 160 149 156 166 150 153 139 230 125 143 146 154 162 164
343 339 336 333 329 325 319 315 306 303 301 298 294 298 208 241 246 251 257 140 161 162 190 171 181 201 242 247 256 272 333 134 146 158 162 142 143 94 142 135 151 155 167 169 174
340 336 333 330 327 324 319 312 307 302 295 286 260 208 242 232 229 169 122 176 164 171 184 206 190 109 231 303 263 295 65 68 7 149 120 110 89 169 151 152 158 169 175 182 186
339 335 332 330 327 323 318 313 309 302 287 250 186 178 243 240 256 263 251 281 200 218 221 280 139 150 160 291 343 40 50 125 214 154 164 105 190 154 161 156 169 175 185 193 197
338 335 333 331 328 325 319 314 313 324 75 138 132 178 264 268 205 241 161 212 146 179 218 264 137 177 129 116 2 21 156 186 177 233 154 79 142 166 169 170 174 185 191 194 205
337 335 333 332 329 325 323 311 288 108 125 174 236 317 253 238 211 200 194 170 153 119 75 185 185 134 92 110 186 195 212 209 180 200 187 161 167 168 177 179 186 190 195 200 203
337 334 333 332 330 327 333 354 9 342 326 235 202 262 299 319 328 170 178 121 138 113 159 204 152 193 187 170 163 146 129 222 210 204 140 191 154 178 183 189 192 200 199 204 205
337 335 333 332 326 325 351 46 83 293 297 255 245 246 255 18 309 300 129 133 148 183 156 56 212 213 116 151 161 179 164 258 288 147 116 164 219 186 186 198 194 195 201 205 211
336 335 334 334 322 13 302 228 54 23 243 275 219 223 208 169 215 252 171 151 148 170 176 197 237 148 159 155 161 203 179 206 154 83 64 112 8 184 210 211 212 214 206 203 208
333 333 336 339 32 323 290 307 327 286 300 270 232 252 169 133 238 200 196 145 162 194 141 213 236 188 145 187 139 189 207 142 166 109 212 167 242 222 200 215 212 212 209 204 209
332 331 330 331 271 312 279 331 325 73 312 206 191 134 173 170 144 209 174 123 179 161 136 226 197 188 168 202 156 222 138 178 159 200 107 287 68 264 187 215 219 213 212 210 201
330 332 327 44 253 248 315 303 6 49 245 307 128 142 124 250 272 95 146 186 146 164 132 210 202 162 208 151 183 88 82 49 65 114 167 231 190 253 183 215 221 217 212 211 207
327 331 322 277 249 318 334 3 66 198 320 341 357 30 278 204 245 160 167 174 170 145 200 170 231 218 146 164 204 109 85 318 348 81 213 192 182 236 226 220 214 208 211 209 206
327 324 285 235 254 284 358 56 207 233 273 6 340 294 196 159 232 189 150 178 203 126 131 162 221 202 193 182 177 172 151 155 174 207 223 79 222 249 232 226 229 220 215 202 202
325 337 321 266 282 112 75 169 209 259 6 333 324 28 327 347 5 150 181 193 190 181 153 150 239 252 180 169 157 197 156 182 131 28 72 221 284 311 248 269 225 218 197 197 202
330 339 281 294 307 85 71 246 261 328 358 354 16 1 324 325 18 153 175 188 191 181 154 193 187 210 175 133 212 159 171 101 346 168 205 270 258 231 283 247 239 227 195 197 205
29 356 263 340 86 53 170 240 294 341 7 350 324 302 301 292 353 313 261 258 171 193 160 146 123 264 182 190 176 132 159 62 123 137 167 202 263 207 231 245 230 216 203 195 202
20 339 308 354 62 18 20 311 295 303 309 254 256 225 240 278 294 292 261 12 339 224 195 192 157 214 199 208 180 172 176 156 136 219 185 165 257 197 224 254 218 212 207 206 203
322 265 307 38 47 347 311 294 284 2 317 312 298 280 283 287 293 233 272 19 9 23 196 170 198 180 298 305 153 177 170 123 112 102 189 149 254 286 287 8 293 194 211 219 211
9 338 323 23 187 357 344 313 326 327 280 338 256 311 286 257 210 272 344 318 334 13 349 266 149 210 219 218 145 160 159 167 149 149 173 221 240 274 276 265 240 222 239 219 197
68 267 246 307 325 309 339 307 328 335 319 325 334 344 307 264 305 177 327 311 306 1 1 91 206 186 210 182 157 180 170 168 179 185 180 228 196 222 248 281 287 285 227 225 213
272 331 339 276 290 326 331 7 298 330 280 309 350 329 13 60 356 313 1 296 273 330 2 341 273 146 228 212 196 213 210 180 198 181 193 234 245 191 219 223 269 262 237 213 214
215 51 251 278 309 328 353 323 310 306 297 299 314 313 316 306 308 266 244 250 234 295 307 18 67 132 229 181 114 259 220 178 169 171 161 201 235 177 203 205 228 216 207 197 206